Location: Torrington
(42.0650°N, 104.1810°W)
Time: 20:34:04
(UTC-06:00)

Amateur Radio Satellites - All Passes

Search period start: 28 July 2014 20:04
Search period end: 29 July 2014 20:04
Location: Torrington, 42.0650°N, 104.1810°W

Satellite Date Start Highest point End Downlink Frequencies (MHz)
Time Altitude Azimuth
RS-15 28 Jul 20:31:49 20:41:16 31° 30° (NNE) 20:50:52 29.354 - 29.394 USB, Beacon 29.352 USB
SO-50 28 Jul 20:34:54 20:38:54 26° 45° (NE) 20:42:57 436.795 FM
MaSat-1 28 Jul 20:41:09 20:44:04 19° 101° (ESE) 20:47:18 437.345 MHz
Oscar 11 28 Jul 20:42:26 20:44:56 15° 64° (ENE) 20:47:27 145.825 FM, Beacon 2401.500 USB
HO-68 28 Jul 21:29:28 21:36:36 67° 257° (WSW) 21:43:45 435.675 MHz FM
STRAND 1 28 Jul 21:29:52 21:32:28 14° 301° (WNW) 21:35:03 ?
UKube-1 28 Jul 21:30:49 21:35:11 80° 257° (WSW) 21:39:35 145.840 MHz, 145.915 MHz
SO-50 28 Jul 22:15:07 22:19:39 45° 243° (WSW) 22:24:14 436.795 FM
Oscar 11 28 Jul 22:16:31 22:20:42 52° 260° (W) 22:24:56 145.825 FM, Beacon 2401.500 USB
MaSat-1 28 Jul 22:17:00 22:20:57 42° 303° (WNW) 22:25:30 437.345 MHz
UOSAT-12 28 Jul 22:37:06 22:41:17 30° 46° (NE) 22:45:26 437.025 FM, 437.400 FM
FUNcube-1 28 Jul 22:37:14 22:41:35 85° 256° (WSW) 22:45:51 145.950 - 145.970 MHz USB
RS-15 28 Jul 22:44:20 22:55:26 84° 57° (ENE) 23:06:56 29.354 - 29.394 USB, Beacon 29.352 USB
HO-68 28 Jul 23:25:20 23:25:33 10° 275° (W) 23:25:47 435.675 MHz FM
ISS 29 Jul 00:02:37 00:05:57 76° 143° (SE) 00:09:18 145.800 FM
UOSAT-12 29 Jul 00:17:09 00:21:30 37° 245° (WSW) 00:25:46 437.025 FM, 437.400 FM
Sapphire 29 Jul 00:25:46 00:30:35 34° 110° (ESE) 00:35:25 437.095 MHz 1200 baud AX-25 AFSK
RS-15 29 Jul 00:58:04 01:06:31 26° 257° (WSW) 01:15:14 29.354 - 29.394 USB, Beacon 29.352 USB
PCSat 29 Jul 00:58:30 01:03:51 70° 117° (ESE) 01:09:16 145.825 MHz
Oscar 16 29 Jul 01:21:15 01:24:19 16° 91° (E) 01:27:21 437.025 USB, Beacon 2401.1428
Oscar 10/S400 29 Jul 01:37:26 02:16:09 62° 188° (S) 11:05:39 145.825 - 145.975 CW/USB, Beacon 145.810 USB
ISS 29 Jul 01:40:11 01:42:58 23° 342° (NNW) 01:45:45 145.800 FM
ITAMSAT 1 29 Jul 01:44:31 01:44:49 10° 88° (E) 01:45:07 435.822 SSB
AO-27 29 Jul 02:01:06 02:04:20 17° 91° (E) 02:07:32 436.795 MHz FM
Uribyol 2 29 Jul 02:01:15 02:04:36 17° 91° (E) 02:07:56 436.500 FM
Sapphire 29 Jul 02:08:58 02:13:56 37° 309° (NW) 02:18:57 437.095 MHz 1200 baud AX-25 AFSK
Gurwin Techsat 1B 29 Jul 02:24:58 02:26:17 11° 88° (E) 02:27:36 435.225 FM
Oscar 19 29 Jul 02:30:31 02:35:41 68° 102° (ESE) 02:40:50 437.125 CW, 437.150 USB
PCSat 29 Jul 02:43:45 02:47:49 21° 316° (NW) 02:51:53 145.825 MHz
AO-Echo 29 Jul 02:47:16 02:52:09 46° 99° (E) 02:56:51 ?
Oscar 16 29 Jul 02:58:59 03:04:06 64° 287° (WNW) 03:09:12 437.025 USB, Beacon 2401.1428
OPAL 29 Jul 03:04:15 03:08:16 26° 63° (ENE) 03:12:18 ?
JAS-1B 29 Jul 03:18:10 03:27:26 58° 98° (E) 03:35:18 435.800 - 435.900 CW/SSB
ISS 29 Jul 03:18:23 03:20:33 16° 2° (N) 03:22:44 145.800 FM
ITAMSAT 1 29 Jul 03:19:49 03:25:02 88° 105° (ESE) 03:30:12 435.822 SSB
TMSAT-1 29 Jul 03:37:24 03:42:23 40° 98° (E) 03:47:19 436.925 FM
AO-27 29 Jul 03:39:08 03:44:16 61° 288° (WNW) 03:49:21 436.795 MHz FM
Uribyol 2 29 Jul 03:39:23 03:44:27 58° 288° (WNW) 03:49:30 436.500 FM
Gurwin Techsat 1B 29 Jul 04:01:37 04:06:58 90° 285° (WNW) 04:12:16 435.225 FM
Oscar 19 29 Jul 04:11:19 04:14:28 17° 299° (WNW) 04:17:38 437.125 CW, 437.150 USB
AO-Echo 29 Jul 04:26:45 04:30:34 22° 297° (WNW) 04:34:18 ?
AO-7 29 Jul 04:39:17 04:46:51 37° 98° (E) 04:54:21 29.400 - 29.500 MHz
OPAL 29 Jul 04:42:21 04:46:57 39° 260° (W) 04:51:35 ?
Uosat F 29 Jul 04:44:19 04:48:58 37° 98° (E) 04:53:34 435.120 FM
ISS 29 Jul 04:55:05 04:58:04 29° 22° (NNE) 05:01:04 145.800 FM
MaSat-1 29 Jul 04:59:41 05:01:12 11° 40° (NE) 05:02:43 437.345 MHz
ITAMSAT 1 29 Jul 05:01:31 05:03:46 13° 302° (WNW) 05:06:00 435.822 SSB
JAS-1B 29 Jul 05:09:03 05:17:25 37° 300° (WNW) 05:24:50 435.800 - 435.900 CW/SSB
TMSAT-1 29 Jul 05:17:43 05:22:06 27° 295° (WNW) 05:26:28 436.925 FM
KITSAT 1 29 Jul 05:20:10 05:26:41 28° 105° (ESE) 05:33:12 435.175 FM
STRAND 1 29 Jul 05:28:39 05:31:42 16° 60° (ENE) 05:34:45 ?
Gurwin Techsat 1B 29 Jul 05:43:49 05:46:09 13° 302° (WNW) 05:48:28 435.225 FM
Uosat F 29 Jul 06:23:25 06:27:35 27° 295° (WNW) 06:31:43 435.120 FM
ISS 29 Jul 06:31:39 06:34:55 48° 220° (SW) 06:38:10 145.800 FM
AO-7 29 Jul 06:31:51 06:39:49 52° 297° (WNW) 06:47:44 29.400 - 29.500 MHz
MaSat-1 29 Jul 06:34:29 06:39:44 56° 60° (ENE) 06:44:43 437.345 MHz
JAS-2 29 Jul 06:48:01 06:53:38 42° 97° (E) 06:58:42 435.800 - 435.900 CW/SSB, 435.910 FM
Hamsat 29 Jul 07:02:46 07:07:06 86° 102° (ESE) 07:11:26 145.90 MHz
STRAND 1 29 Jul 07:05:11 07:10:18 70° 258° (WSW) 07:15:28 ?
PANSAT 29 Jul 07:05:54 07:06:45 11° 183° (S) 07:07:36 not established
KITSAT 1 29 Jul 07:13:21 07:21:25 68° 305° (NW) 07:29:31 435.175 FM
SO-67 29 Jul 07:22:53 07:25:25 19° 94° (E) 07:27:56 435.3500 MHz FM
Saudisat 1A 29 Jul 07:42:56 07:47:17 61° 120° (ESE) 07:51:40 436.775 MHz
PCSat 29 Jul 08:04:31 08:06:52 13° 36° (NE) 08:09:13 145.825 MHz
MaSat-1 29 Jul 08:12:50 08:16:36 20° 258° (WSW) 08:20:13 437.345 MHz
AO-7 29 Jul 08:27:42 08:30:40 12° 318° (NW) 08:33:38 29.400 - 29.500 MHz
JAS-2 29 Jul 08:33:31 08:38:28 28° 298° (WNW) 08:43:01 435.800 - 435.900 CW/SSB, 435.910 FM
SO-67 29 Jul 08:55:36 08:58:28 24° 290° (WNW) 09:01:19 435.3500 MHz FM
HO-68 29 Jul 08:57:37 09:03:06 23° 93° (E) 09:08:33 435.675 MHz FM
KITSAT 1 29 Jul 09:12:34 09:18:27 21° 329° (NNW) 09:24:21 435.175 FM
Sapphire 29 Jul 09:12:55 09:17:48 32° 50° (NE) 09:22:38 437.095 MHz 1200 baud AX-25 AFSK
UKube-1 29 Jul 09:19:55 09:22:44 17° 93° (E) 09:25:31 145.840 MHz, 145.915 MHz
Saudisat 1A 29 Jul 09:24:04 09:27:15 19° 318° (NW) 09:30:28 436.775 MHz
PCSat 29 Jul 09:46:04 09:51:27 61° 57° (ENE) 09:56:48 145.825 MHz
Oscar 11 29 Jul 10:04:01 10:07:42 27° 95° (E) 10:11:22 145.825 FM, Beacon 2401.500 USB
FUNcube-1 29 Jul 10:27:00 10:29:45 17° 93° (E) 10:32:30 145.950 - 145.970 MHz USB
HO-68 29 Jul 10:44:15 10:51:20 67° 291° (WNW) 10:58:22 435.675 MHz FM
UKube-1 29 Jul 10:55:00 10:59:10 45° 289° (WNW) 11:03:17 145.840 MHz, 145.915 MHz
Sapphire 29 Jul 10:56:15 11:01:17 40° 248° (WSW) 11:06:17 437.095 MHz 1200 baud AX-25 AFSK
KITSAT 1 29 Jul 11:15:02 11:17:44 12° 359° (N) 11:20:25 435.175 FM
PCSat 29 Jul 11:30:36 11:34:22 19° 254° (WSW) 11:38:07 145.825 MHz
Oscar 11 29 Jul 11:40:08 11:43:50 28° 292° (WNW) 11:47:31 145.825 FM, Beacon 2401.500 USB
FUNcube-1 29 Jul 12:02:25 12:06:20 40° 288° (WNW) 12:10:16 145.950 - 145.970 MHz USB
Oscar 19 29 Jul 12:11:53 12:14:22 14° 59° (ENE) 12:16:50 437.125 CW, 437.150 USB
JAS-1B 29 Jul 12:16:43 12:21:10 14° 44° (NE) 12:25:42 435.800 - 435.900 CW/SSB
SO-50 29 Jul 12:30:18 12:34:38 53° 119° (ESE) 12:39:04 436.795 FM
HO-68 29 Jul 12:34:26 12:37:43 14° 310° (NW) 12:41:01 435.675 MHz FM
Oscar 16 29 Jul 12:38:25 12:42:30 25° 65° (ENE) 12:46:36 437.025 USB, Beacon 2401.1428
ITAMSAT 1 29 Jul 13:00:57 13:04:30 19° 62° (ENE) 13:08:04 435.822 SSB
RS-15 29 Jul 13:08:08 13:18:44 52° 112° (ESE) 13:29:07 29.354 - 29.394 USB, Beacon 29.352 USB
KITSAT 1 29 Jul 13:11:21 13:17:04 20° 30° (NNE) 13:22:46 435.175 FM
Uribyol 2 29 Jul 13:19:16 13:23:39 28° 66° (ENE) 13:28:02 436.500 FM
AO-27 29 Jul 13:19:19 13:23:40 28° 65° (ENE) 13:28:02 436.795 MHz FM
Gurwin Techsat 1B 29 Jul 13:45:15 13:49:02 20° 62° (ENE) 13:52:50 435.225 FM
Oscar 19 29 Jul 13:47:54 13:53:00 82° 257° (WSW) 13:58:10 437.125 CW, 437.150 USB
AO-7 29 Jul 13:52:19 13:55:32 13° 42° (NE) 13:58:46 29.400 - 29.500 MHz
AO-Echo 29 Jul 13:59:57 14:05:12 64° 73° (ENE) 14:10:28 ?
JAS-1B 29 Jul 14:00:39 14:09:17 52° 65° (ENE) 14:18:43 435.800 - 435.900 CW/SSB
SO-50 29 Jul 14:12:03 14:15:31 21° 318° (NW) 14:19:03 436.795 FM
Oscar 16 29 Jul 14:16:48 14:21:37 42° 262° (W) 14:26:29 437.025 USB, Beacon 2401.1428
UOSAT-12 29 Jul 14:28:08 14:32:39 61° 119° (ESE) 14:37:17 437.025 FM, 437.400 FM
Saudisat 1A 29 Jul 14:32:30 14:33:06 10° 33° (NNE) 14:33:42 436.775 MHz
ITAMSAT 1 29 Jul 14:38:23 14:43:32 59° 259° (W) 14:48:42 435.822 SSB
AO-27 29 Jul 14:58:10 15:03:01 38° 262° (W) 15:07:53 436.795 MHz FM
Uribyol 2 29 Jul 14:58:11 15:02:58 37° 262° (W) 15:07:47 436.500 FM
TMSAT-1 29 Jul 14:58:30 15:03:44 65° 73° (ENE) 15:09:00 436.925 FM
KITSAT 1 29 Jul 15:06:09 15:14:12 65° 54° (NE) 15:22:11 435.175 FM
RS-15 29 Jul 15:20:31 15:31:09 50° 315° (NW) 15:41:44 29.354 - 29.394 USB, Beacon 29.352 USB
Gurwin Techsat 1B 29 Jul 15:23:22 15:28:34 56° 259° (W) 15:33:49 435.225 FM
AO-7 29 Jul 15:38:25 15:46:26 53° 64° (ENE) 15:54:27 29.400 - 29.500 MHz
AO-Echo 29 Jul 15:41:02 15:44:22 17° 270° (W) 15:47:44 ?
JAS-1B 29 Jul 15:51:30 15:59:49 43° 266° (W) 16:09:04 435.800 - 435.900 CW/SSB
Uosat F 29 Jul 15:57:51 16:02:45 54° 71° (ENE) 16:07:41 435.120 FM
Saudisat 1A 29 Jul 16:09:20 16:13:41 55° 53° (NE) 16:17:59 436.775 MHz
UOSAT-12 29 Jul 16:09:41 16:13:12 21° 319° (NW) 16:16:47 437.025 FM, 437.400 FM
TMSAT-1 29 Jul 16:40:54 16:44:07 16° 270° (W) 16:47:20 436.925 FM
OPAL 29 Jul 16:51:09 16:56:06 50° 102° (ESE) 17:01:05 ?
JAS-2 29 Jul 16:59:35 17:05:41 27° 62° (ENE) 17:11:26 435.800 - 435.900 CW/SSB, 435.910 FM
KITSAT 1 29 Jul 17:02:21 17:09:02 30° 254° (WSW) 17:15:41 435.175 FM
AO-7 29 Jul 17:31:54 17:39:25 36° 262° (W) 17:46:59 29.400 - 29.500 MHz
Uosat F 29 Jul 17:38:29 17:41:52 18° 268° (W) 17:45:16 435.120 FM
RS-15 29 Jul 17:38:48 17:47:00 23° 347° (NNW) 17:55:14 29.354 - 29.394 USB, Beacon 29.352 USB
Saudisat 1A 29 Jul 17:50:05 17:52:50 16° 250° (WSW) 17:55:34 436.775 MHz
Hamsat 29 Jul 17:56:28 18:00:35 63° 75° (ENE) 18:04:45 145.90 MHz
OPAL 29 Jul 18:30:51 18:34:38 22° 299° (WNW) 18:38:27 ?
JAS-2 29 Jul 18:42:22 18:50:10 70° 258° (WSW) 18:57:28 435.800 - 435.900 CW/SSB, 435.910 FM
STRAND 1 29 Jul 19:15:37 19:20:22 38° 98° (E) 19:25:05 ?
SO-50 29 Jul 19:22:50 19:24:25 11° 33° (NNE) 19:26:01 436.795 FM
HO-68 29 Jul 19:27:54 19:32:50 21° 55° (NE) 19:37:46 435.675 MHz FM
SO-67 29 Jul 19:28:23 19:31:50 70° 259° (WSW) 19:35:19 435.3500 MHz FM
Hamsat 29 Jul 19:35:53 19:36:59 11° 271° (W) 19:38:04 145.90 MHz
